Temp
-9 -9 -9 -10 -10 -10 -10 -10 -10 -10 -10 -10 -11 -12 -13 -13 -13 -14 -14 -14 -15 -15 -15 -15 -15 -15 -15 -15 -15 -15 -15 -16 -16 -16 -16 -16 -16 -16 -16 -16 -17 -17 -17 -17 -16 -16 -16 -16 -15 -15 -15 -14 -14 -14
-10 -10 -10 -10 -10 -10 -10 -11 -11 -10 -10 -11 -12 -12 -13 -13 -14 -14 -14 -14 -15 -15 -15 -15 -15 -15 -15 -15 -15 -16 -16 -16 -16 -16 -16 -16 -16 -17 -16 -16 -16 -17 -17 -17 -16 -16 -16 -16 -15 -15 -15 -15 -14 -14
-10 -10 -10 -10 -10 -10 -10 -11 -11 -11 -11 -11 -12 -13 -13 -13 -14 -14 -15 -15 -15 -15 -15 -15 -15 -15 -15 -16 -16 -16 -16 -16 -16 -16 -17 -16 -16 -16 -17 -17 -16 -16 -16 -16 -16 -17 -17 -17 -16 -15 -15 -15 -14 -14
-10 -10 -11 -11 -11 -11 -11 -11 -11 -11 -11 -11 -12 -13 -13 -13 -14 -15 -15 -15 -15 -15 -15 -15 -15 -15 -16 -16 -16 -16 -16 -17 -17 -17 -17 -17 -16 -16 -16 -17 -17 -17 -16 -17 -17 -17 -17 -16 -16 -16 -16 -15 -15 -14
-12 -11 -11 -12 -11 -11 -11 -11 -11 -11 -11 -11 -12 -13 -13 -13 -14 -15 -15 -15 -15 -15 -15 -15 -15 -16 -16 -16 -16 -16 -16 -16 -16 -17 -17 -16 -17 -17 -17 -17 -17 -17 -16 -17 -17 -17 -17 -16 -16 -16 -16 -16 -15 -15
-12 -12 -12 -13 -12 -12 -12 -12 -12 -12 -12 -12 -12 -13 -13 -13 -14 -15 -15 -16 -15 -15 -15 -15 -15 -16 -16 -16 -16 -16 -16 -16 -16 -16 -17 -17 -17 -17 -17 -17 -17 -17 -17 -17 -17 -17 -16 -16 -16 -16 -16 -16 -16 -15
-13 -13 -13 -13 -13 -13 -12 -12 -12 -13 -12 -12 -13 -13 -13 -13 -13 -14 -15 -15 -15 -15 -15 -15 -15 -16 -16 -16 -16 -16 -16 -16 -16 -16 -17 -17 -17 -17 -17 -17 -17 -17 -17 -17 -17 -16 -16 -16 -16 -16 -16 -16 -16 -16
-14 -14 -13 -13 -13 -13 -13 -13 -13 -13 -12 -12 -13 -13 -13 -13 -14 -14 -15 -15 -15 -15 -15 -15 -15 -15 -15 -16 -16 -16 -16 -16 -16 -16 -16 -17 -17 -17 -17 -17 -17 -17 -17 -17 -17 -17 -17 -16 -16 -16 -16 -16 -16 -16
-14 -15 -14 -14 -14 -14 -13 -13 -14 -14 -13 -13 -13 -13 -13 -13 -14 -14 -14 -15 -15 -15 -15 -15 -15 -15 -15 -15 -16 -16 -16 -16 -16 -16 -16 -16 -17 -17 -17 -17 -17 -17 -17 -17 -17 -17 -17 -16 -16 -16 -16 -16 -16 -16
-15 -15 -15 -14 -14 -13 -13 -14 -15 -14 -13 -13 -14 -14 -14 -14 -14 -14 -15 -15 -14 -14 -15 -15 -15 -15 -15 -15 -15 -15 -16 -16 -16 -16 -16 -16 -16 -16 -16 -17 -17 -17 -17 -17 -17 -17 -17 -17 -17 -17 -17 -16 -16 -16
-14 -15 -15 -14 -14 -13 -14 -15 -15 -14 -13 -14 -14 -14 -14 -14 -14 -14 -14 -14 -14 -14 -15 -14 -14 -15 -15 -15 -15 -15 -15 -15 -15 -15 -15 -15 -16 -16 -16 -16 -16 -16 -16 -17 -17 -17 -17 -17 -17 -17 -17 -17 -17 -17
-14 -14 -14 -14 -14 -13 -13 -15 -15 -14 -14 -14 -14 -14 -14 -14 -14 -14 -14 -14 -14 -14 -14 -14 -14 -15 -15 -15 -15 -15 -15 -15 -15 -15 -15 -15 -15 -16 -16 -16 -16 -16 -16 -16 -16 -16 -16 -16 -16 -16 -17 -17 -17 -17
-14 -15 -14 -14 -14 -13 -15 -16 -15 -14 -14 -14 -14 -14 -14 -14 -14 -14 -14 -14 -14 -15 -14 -14 -14 -14 -14 -14 -15 -15 -15 -15 -15 -15 -15 -15 -15 -15 -15 -15 -16 -16 -16 -16 -16 -16 -16 -16 -16 -16 -16 -16 -16 -16
-15 -14 -14 -14 -14 -15 -17 -16 -15 -14 -14 -14 -14 -14 -14 -14 -14 -15 -15 -14 -14 -14 -14 -14 -14 -14 -14 -14 -14 -15 -15 -15 -15 -15 -15 -15 -15 -15 -15 -15 -15 -15 -16 -16 -16 -16 -16 -16 -16 -16 -16 -16 -16 -17
-15 -15 -14 -14 -15 -17 -17 -15 -15 -15 -15 -14 -14 -14 -14 -15 -15 -15 -15 -15 -15 -15 -14 -14 -14 -14 -14 -14 -14 -14 -15 -15 -15 -15 -15 -15 -15 -15 -15 -15 -15 -15 -15 -15 -16 -16 -16 -16 -16 -16 -16 -16 -16 -17
-16 -15 -15 -15 -16 -18 -16 -16 -15 -15 -15 -15 -15 -15 -15 -15 -16 -15 -15 -15 -15 -15 -14 -14 -14 -14 -14 -14 -14 -14 -15 -15 -15 -15 -15 -15 -15 -15 -15 -15 -15 -15 -16 -16 -16 -16 -16 -16 -16 -16 -16 -16 -17 -17
-17 -16 -16 -17 -18 -17 -16 -16 -16 -15 -15 -16 -16 -16 -15 -15 -16 -16 -15 -15 -15 -15 -15 -15 -14 -14 -14 -14 -14 -15 -15 -15 -15 -15 -15 -15 -15 -15 -15 -15 -15 -16 -16 -16 -16 -16 -16 -16 -16 -16 -16 -16 -17 -17
-17 -18 -18 -18 -18 -17 -16 -16 -16 -16 -16 -16 -16 -16 -16 -15 -16 -16 -16 -16 -15 -15 -15 -15 -14 -14 -15 -15 -15 -14 -15 -15 -15 -15 -15 -15 -15 -15 -15 -15 -15 -16 -16 -16 -16 -16 -16 -16 -16 -16 -17 -16 -17 -17
-18 -18 -18 -18 -17 -17 -17 -16 -16 -16 -16 -16 -16 -16 -16 -16 -16 -16 -16 -16 -16 -15 -15 -15 -15 -15 -16 -16 -15 -15 -14 -14 -15 -15 -15 -15 -15 -15 -15 -15 -16 -15 -16 -16 -16 -17 -17 -17 -17 -17 -17 -17 -17 -18
-18 -17 -17 -18 -17 -17 -17 -17 -16 -16 -16 -16 -16 -16 -16 -16 -16 -17 -16 -16 -16 -16 -15 -15 -15 -15 -15 -15 -15 -15 -14 -15 -15 -15 -15 -15 -15 -15 -15 -16 -16 -16 -15 -16 -16 -17 -17 -17 -17 -17 -17 -17 -18 -18
-17 -17 -17 -18 -17 -18 -17 -17 -17 -16 -16 -16 -16 -16 -17 -16 -17 -18 -17 -17 -16 -16 -15 -16 -16 -15 -15 -15 -15 -15 -15 -15 -15 -15 -15 -15 -15 -15 -15 -16 -16 -15 -16 -15 -16 -16 -17 -17 -17 -18 -18 -18 -18 -19
-17 -17 -17 -18 -17 -17 -17 -17 -17 -16 -16 -16 -17 -17 -18 -18 -18 -18 -17 -17 -16 -16 -16 -16 -15 -15 -15 -15 -15 -15 -15 -15 -15 -15 -15 -15 -15 -15 -16 -16 -16 -16 -16 -16 -16 -17 -17 -17 -18 -18 -18 -18 -19 -20
-18 -18 -18 -17 -17 -17 -17 -17 -17 -17 -17 -17 -17 -18 -18 -18 -17 -17 -17 -16 -16 -16 -16 -16 -15 -15 -15 -15 -15 -15 -15 -15 -15 -15 -15 -15 -15 -15 -15 -15 -16 -16 -16 -16 -16 -17 -17 -18 -19 -19 -19 -19 -20 -20
-18 -18 -17 -17 -17 -17 -17 -17 -17 -17 -17 -17 -18 -18 -18 -18 -17 -17 -17 -16 -16 -16 -16 -16 -16 -15 -15 -15 -15 -15 -15 -15 -15 -16 -15 -15 -16 -16 -15 -15 -16 -16 -16 -16 -17 -18 -19 -19 -19 -19 -19 -20 -20 -20
-18 -18 -17 -17 -17 -17 -17 -17 -17 -17 -17 -17 -17 -17 -17 -17 -17 -17 -16 -16 -16 -16 -16 -16 -16 -16 -16 -16 -16 -16 -16 -16 -16 -16 -16 -16 -15 -16 -16 -16 -15 -16 -16 -17 -17 -17 -18 -18 -19 -19 -20 -20 -20 -21
-18 -18 -18 -18 -17 -17 -17 -17 -17 -17 -17 -17 -17 -17 -17 -17 -17 -16 -16 -16 -17 -16 -16 -16 -16 -16 -16 -16 -16 -15 -15 -16 -16 -15 -16 -16 -16 -16 -16 -16 -15 -15 -17 -17 -17 -18 -18 -18 -19 -19 -20 -20 -21 -21
-18 -18 -18 -17 -17 -17 -17 -17 -17 -17 -17 -17 -17 -17 -17 -17 -17 -17 -17 -17 -17 -16 -16 -16 -16 -16 -16 -15 -15 -16 -15 -15 -15 -15 -16 -16 -16 -16 -16 -16 -16 -17 -17 -17 -17 -18 -18 -19 -19 -19 -20 -21 -21 -21
-18 -18 -17 -17 -17 -17 -17 -17 -17 -17 -17 -17 -17 -17 -17 -17 -17 -17 -17 -17 -17 -16 -16 -16 -16 -16 -15 -16 -16 -16 -16 -16 -16 -16 -16 -16 -16 -16 -17 -17 -17 -17 -17 -17 -17 -18 -18 -19 -19 -20 -20 -21 -21 -22
-17 -17 -17 -17 -17 -17 -17 -17 -17 -17 -17 -17 -17 -17 -17 -17 -17 -17 -17 -17 -17 -16 -16 -16 -16 -16 -16 -16 -16 -16 -16 -16 -17 -17 -17 -17 -16 -17 -17 -17 -17 -17 -17 -17 -18 -18 -19 -19 -19 -20 -20 -21 -21 -22
-17 -17 -17 -17 -17 -16 -16 -16 -17 -17 -17 -17 -17 -17 -17 -17 -17 -17 -17 -17 -17 -16 -16 -16 -17 -17 -16 -16 -16 -17 -16 -17 -17 -17 -17 -17 -17 -17 -17 -17 -17 -18 -18 -18 -18 -19 -19 -19 -20 -20 -20 -21 -21 -22
-17 -17 -16 -16 -16 -16 -16 -17 -17 -17 -17 -17 -17 -17 -17 -17 -17 -17 -17 -17 -17 -17 -17 -16 -17 -16 -16 -16 -16 -16 -16 -17 -17 -17 -17 -17 -17 -17 -18 -18 -18 -18 -18 -18 -19 -19 -20 -20 -20 -20 -21 -21 -21 -22
-16 -16 -16 -16 -16 -16 -17 -17 -17 -17 -17 -17 -17 -17 -17 -17 -17 -17 -17 -17 -17 -17 -17 -17 -16 -16 -16 -17 -17 -17 -17 -17 -17 -18 -18 -18 -18 -18 -18 -19 -19 -19 -19 -19 -19 -20 -20 -20 -20 -20 -21 -21 -21 -22
-16 -16 -16 -16 -16 -16 -17 -17 -17 -17 -16 -17 -17 -17 -17 -17 -17 -17 -17 -17 -17 -17 -17 -17 -17 -17 -17 -17 -17 -17 -18 -18 -18 -18 -19 -19 -19 -19 -19 -19 -20 -20 -20 -20 -20 -20 -21 -21 -21 -21 -21 -21 -21 -21
Height
5802 5802 5800 5798 5796 5793 5790 5786 5783 5780 5776 5772 5770 5768 5766 5764 5762 5763 5763 5763 5764 5763 5764 5763 5763 5763 5763 5762 5761 5760 5759 5757 5756 5756 5756 5755 5754 5754 5754 5754 5755 5756 5758 5760 5760 5761 5764 5763 5765 5771 5772 5774 5779 5787
5792 5791 5791 5790 5788 5786 5783 5781 5777 5774 5771 5768 5765 5764 5763 5761 5760 5760 5760 5760 5761 5761 5762 5762 5761 5760 5760 5759 5758 5756 5755 5753 5752 5752 5752 5751 5751 5750 5750 5751 5750 5750 5750 5753 5755 5755 5755 5755 5758 5761 5764 5767 5771 5778
5780 5780 5780 5780 5779 5777 5775 5773 5771 5769 5765 5762 5760 5759 5758 5757 5756 5756 5757 5757 5759 5759 5759 5759 5758 5758 5756 5755 5754 5753 5751 5749 5748 5747 5747 5747 5746 5746 5746 5747 5747 5746 5747 5749 5749 5749 5750 5751 5752 5754 5757 5761 5764 5770
5767 5767 5768 5769 5769 5768 5766 5765 5763 5762 5759 5756 5755 5754 5753 5753 5753 5752 5754 5755 5757 5758 5758 5757 5756 5755 5754 5752 5750 5749 5747 5745 5744 5743 5743 5742 5742 5742 5742 5743 5743 5744 5744 5745 5745 5746 5747 5747 5749 5749 5751 5754 5758 5763
5754 5755 5754 5756 5757 5757 5757 5757 5756 5755 5752 5750 5749 5749 5748 5748 5747 5748 5749 5751 5753 5757 5756 5754 5753 5752 5751 5749 5747 5746 5745 5743 5741 5740 5739 5738 5738 5738 5738 5738 5739 5739 5740 5740 5741 5742 5743 5744 5745 5747 5747 5748 5752 5756
5741 5742 5743 5743 5744 5746 5746 5747 5748 5747 5746 5744 5743 5743 5743 5743 5743 5743 5745 5748 5750 5753 5754 5752 5751 5750 5749 5747 5746 5744 5743 5741 5739 5737 5736 5734 5734 5734 5734 5734 5734 5735 5735 5736 5737 5738 5739 5740 5742 5743 5744 5745 5746 5749
5728 5728 5728 5731 5733 5735 5736 5736 5738 5739 5738 5736 5736 5737 5738 5738 5738 5739 5742 5744 5745 5749 5751 5750 5749 5748 5747 5745 5744 5743 5741 5739 5738 5735 5733 5731 5731 5730 5730 5730 5731 5731 5732 5733 5734 5735 5736 5736 5737 5738 5739 5740 5741 5743
5717 5716 5716 5718 5721 5724 5726 5727 5727 5729 5730 5729 5729 5731 5732 5733 5733 5734 5736 5739 5742 5746 5747 5747 5747 5746 5745 5744 5743 5742 5740 5738 5736 5734 5732 5730 5729 5728 5728 5727 5728 5728 5729 5730 5731 5732 5733 5734 5734 5735 5736 5737 5738 5739
5707 5706 5705 5707 5710 5714 5716 5716 5717 5721 5722 5722 5723 5725 5727 5728 5729 5730 5733 5736 5738 5743 5744 5744 5744 5744 5743 5743 5742 5741 5739 5737 5735 5733 5732 5730 5727 5726 5726 5726 5726 5726 5727 5728 5728 5729 5730 5731 5731 5732 5732 5733 5733 5734
5697 5697 5698 5699 5702 5703 5704 5705 5709 5712 5714 5716 5717 5720 5721 5723 5724 5728 5729 5732 5735 5738 5741 5741 5741 5741 5742 5742 5741 5740 5738 5736 5735 5734 5732 5730 5728 5726 5725 5725 5725 5725 5725 5726 5727 5727 5728 5728 5729 5729 5729 5730 5730 5729
5688 5688 5689 5691 5691 5692 5692 5696 5700 5704 5707 5709 5712 5714 5715 5718 5719 5723 5726 5728 5732 5735 5737 5738 5739 5739 5740 5740 5739 5738 5738 5736 5735 5735 5732 5731 5729 5728 5726 5725 5725 5724 5724 5725 5725 5725 5725 5725 5725 5725 5725 5725 5724 5724
5678 5679 5681 5683 5683 5684 5685 5688 5694 5698 5699 5703 5706 5709 5710 5712 5715 5719 5722 5725 5729 5731 5734 5735 5736 5737 5738 5738 5738 5737 5736 5735 5734 5733 5732 5731 5730 5728 5727 5726 5725 5724 5723 5723 5722 5722 5722 5722 5722 5721 5721 5721 5720 5720
5670 5671 5673 5675 5676 5678 5678 5683 5688 5691 5693 5696 5700 5702 5705 5708 5710 5715 5719 5723 5725 5728 5730 5732 5733 5734 5735 5735 5736 5735 5735 5734 5733 5732 5731 5730 5729 5728 5727 5726 5725 5724 5723 5722 5721 5720 5720 5719 5718 5717 5716 5715 5715 5713
5662 5664 5665 5667 5668 5670 5673 5678 5682 5684 5687 5690 5693 5696 5699 5703 5707 5711 5715 5717 5721 5724 5726 5728 5730 5731 5732 5733 5733 5733 5733 5731 5730 5730 5729 5728 5727 5726 5725 5723 5722 5721 5720 5720 5719 5718 5716 5715 5714 5713 5711 5710 5708 5706
5654 5656 5658 5659 5660 5663 5668 5673 5676 5679 5681 5684 5687 5691 5696 5699 5703 5706 5711 5714 5716 5719 5722 5724 5726 5728 5728 5729 5729 5730 5730 5729 5728 5727 5726 5725 5724 5723 5722 5721 5719 5718 5717 5715 5714 5712 5711 5710 5708 5707 5705 5703 5700 5698
5646 5649 5652 5654 5656 5660 5665 5668 5671 5674 5676 5679 5682 5687 5691 5694 5697 5701 5705 5709 5711 5715 5718 5720 5722 5724 5725 5725 5726 5726 5726 5725 5725 5724 5723 5721 5720 5719 5718 5716 5715 5714 5712 5710 5708 5706 5704 5703 5701 5699 5697 5694 5691 5688
5641 5643 5645 5649 5653 5658 5661 5664 5666 5669 5671 5675 5679 5682 5685 5688 5691 5695 5700 5703 5706 5710 5713 5715 5717 5719 5721 5721 5722 5722 5722 5721 5720 5719 5717 5716 5715 5714 5713 5711 5710 5709 5707 5705 5703 5700 5698 5695 5693 5690 5687 5684 5681 5678
5636 5638 5641 5646 5650 5653 5656 5659 5662 5665 5668 5671 5674 5677 5679 5682 5685 5690 5693 5697 5701 5704 5707 5710 5712 5715 5717 5717 5716 5716 5716 5716 5715 5713 5711 5710 5709 5708 5707 5706 5704 5702 5699 5697 5694 5692 5690 5687 5684 5681 5678 5675 5671 5667
5631 5636 5640 5643 5646 5649 5653 5656 5658 5660 5663 5665 5668 5671 5674 5677 5680 5683 5688 5691 5694 5698 5701 5704 5707 5711 5711 5709 5708 5709 5709 5708 5708 5707 5705 5703 5702 5700 5699 5698 5696 5693 5690 5687 5684 5683 5681 5678 5676 5673 5670 5665 5661 5657
5626 5631 5638 5641 5644 5647 5650 5653 5655 5656 5659 5662 5664 5666 5669 5671 5674 5677 5682 5685 5688 5691 5695 5700 5702 5702 5703 5702 5703 5704 5703 5702 5701 5700 5698 5696 5694 5692 5691 5689 5687 5684 5680 5678 5676 5673 5671 5668 5666 5663 5660 5656 5652 5649
5624 5630 5634 5640 5643 5645 5648 5649 5652 5654 5656 5657 5660 5661 5663 5665 5668 5671 5675 5678 5681 5686 5690 5691 5692 5693 5694 5696 5696 5696 5695 5694 5693 5692 5690 5687 5686 5684 5683 5680 5678 5675 5671 5669 5665 5664 5662 5660 5657 5654 5651 5647 5643 5641
5623 5627 5633 5637 5641 5644 5646 5648 5649 5650 5653 5654 5656 5657 5659 5661 5663 5666 5669 5672 5677 5681 5682 5683 5685 5687 5688 5688 5688 5687 5685 5685 5684 5682 5681 5678 5676 5674 5671 5668 5665 5663 5661 5660 5657 5655 5653 5650 5648 5644 5642 5639 5635 5634
5620 5625 5630 5635 5639 5642 5645 5644 5647 5648 5649 5650 5651 5652 5655 5657 5660 5662 5665 5669 5671 5673 5675 5677 5679 5680 5681 5680 5679 5677 5676 5675 5674 5673 5671 5669 5666 5663 5660 5657 5657 5655 5652 5651 5649 5646 5647 5644 5641 5638 5634 5631 5630 5628
5621 5626 5629 5633 5636 5638 5641 5643 5644 5646 5647 5648 5649 5650 5651 5653 5656 5658 5661 5663 5665 5667 5669 5671 5672 5673 5673 5672 5670 5669 5668 5667 5666 5665 5663 5661 5659 5656 5653 5651 5648 5648 5645 5642 5640 5639 5637 5636 5634 5631 5628 5626 5625 5622
5622 5626 5629 5631 5634 5637 5638 5640 5642 5644 5645 5646 5647 5648 5648 5649 5651 5654 5656 5659 5661 5663 5664 5665 5666 5666 5666 5664 5663 5662 5660 5659 5658 5657 5655 5653 5651 5648 5645 5644 5641 5638 5637 5635 5634 5632 5632 5630 5627 5625 5623 5621 5619 5617
5620 5623 5627 5629 5632 5634 5636 5638 5640 5641 5643 5644 5645 5646 5646 5647 5649 5651 5652 5653 5655 5657 5658 5659 5661 5661 5659 5659 5658 5656 5655 5653 5651 5649 5647 5645 5643 5641 5639 5637 5635 5631 5631 5631 5629 5627 5625 5623 5622 5620 5618 5616 5614 5612
5619 5622 5624 5627 5630 5632 5634 5636 5637 5640 5642 5643 5644 5645 5646 5647 5648 5650 5649 5650 5652 5653 5654 5655 5655 5655 5654 5652 5651 5649 5647 5645 5642 5640 5639 5637 5636 5634 5632 5630 5628 5627 5626 5624 5623 5621 5620 5618 5617 5615 5613 5611 5610 5608
5616 5618 5622 5625 5627 5630 5632 5634 5635 5637 5640 5641 5642 5643 5644 5646 5647 5647 5648 5649 5649 5650 5650 5650 5650 5648 5647 5645 5643 5641 5639 5637 5635 5634 5632 5630 5628 5627 5625 5624 5622 5621 5620 5619 5618 5616 5615 5614 5612 5610 5608 5607 5606 5604
5614 5617 5620 5622 5625 5628 5630 5631 5633 5635 5637 5639 5640 5641 5641 5643 5644 5645 5645 5645 5646 5646 5645 5645 5644 5643 5641 5640 5638 5636 5634 5632 5630 5628 5627 5625 5624 5623 5621 5620 5618 5617 5616 5614 5613 5611 5610 5608 5607 5605 5604 5602 5601 5600
5613 5616 5618 5620 5623 5625 5628 5629 5631 5633 5634 5636 5637 5638 5639 5640 5641 5642 5642 5643 5642 5642 5641 5640 5638 5638 5636 5635 5633 5632 5630 5629 5627 5626 5624 5622 5620 5619 5617 5615 5613 5612 5610 5609 5607 5606 5605 5603 5602 5600 5599 5598 5596 5595
5612 5614 5617 5620 5623 5625 5626 5628 5630 5631 5632 5634 5635 5636 5637 5638 5639 5639 5639 5639 5638 5637 5636 5635 5634 5633 5632 5631 5630 5628 5627 5625 5623 5621 5618 5616 5614 5612 5610 5609 5607 5606 5604 5602 5601 5601 5600 5598 5597 5596 5595 5594 5592 5591
5614 5617 5619 5621 5622 5624 5625 5627 5630 5632 5634 5635 5636 5636 5636 5636 5636 5637 5637 5635 5634 5633 5632 5631 5630 5629 5628 5627 5625 5623 5621 5619 5617 5614 5612 5609 5607 5605 5603 5602 5600 5599 5597 5596 5595 5594 5593 5593 5592 5591 5590 5589 5588 5587
5615 5617 5619 5621 5624 5626 5628 5630 5632 5633 5634 5635 5635 5635 5635 5634 5634 5634 5633 5632 5631 5631 5630 5629 5628 5627 5625 5623 5620 5618 5615 5612 5610 5607 5605 5602 5600 5598 5596 5594 5593 5592 5591 5590 5589 5588 5588 5588 5587 5586 5585 5584 5583 5582
Wind_Speed
33 32 31 31 29 28 26 26 26 27 24 22 20 14 11 8 8 11 11 11 12 12 8 7 8 10 10 11 11 10 10 9 8 7 8 9 8 9 11 14 17 18 22 18 19 20 25 29 32 31 33 39 45 42
37 34 34 31 30 29 27 27 27 28 23 21 19 15 11 9 8 12 11 9 10 10 7 7 8 9 11 12 13 13 13 12 11 12 11 10 12 11 10 9 13 15 23 21 22 22 23 24 28 31 34 36 40 44
43 41 37 33 30 29 28 27 27 28 23 19 18 15 13 10 10 12 12 9 8 7 6 6 7 8 10 10 11 13 13 13 12 13 13 12 12 13 12 11 10 12 13 18 17 17 17 20 20 24 31 34 37 42
40 41 42 37 31 30 31 26 24 28 23 18 17 15 14 13 12 14 13 11 9 6 5 6 7 8 5 8 10 11 8 7 8 8 10 10 10 12 12 11 12 12 11 11 15 10 11 13 12 15 18 26 30 31
44 38 39 40 35 30 30 26 24 26 22 18 15 14 15 13 13 14 16 15 12 8 7 6 5 5 8 9 7 5 6 7 7 9 9 9 8 9 11 12 12 12 13 16 14 14 14 13 11 11 10 17 28 33
45 43 38 37 37 31 28 28 27 25 22 17 14 14 15 13 12 14 17 18 14 13 10 6 4 5 7 6 5 6 7 7 7 8 9 9 9 11 11 12 12 12 13 14 15 16 17 16 16 14 12 12 15 30
42 42 38 36 34 32 30 26 29 23 21 16 14 14 15 14 12 13 16 18 15 15 11 5 4 5 5 3 4 4 7 6 7 8 7 7 8 8 9 10 10 11 12 12 12 12 13 13 14 15 15 15 15 14
37 34 30 30 32 32 29 31 26 20 19 16 14 14 14 14 12 14 19 18 16 13 9 4 3 3 3 2 2 4 6 6 7 8 9 6 5 6 7 8 7 7 9 10 11 12 12 13 13 13 14 15 17 19
33 29 26 29 29 30 32 32 19 18 18 15 15 14 14 14 13 18 20 18 14 11 9 5 4 2 1 1 2 3 4 5 6 7 10 11 7 3 4 4 5 5 5 6 8 9 9 9 10 11 12 14 16 19
30 28 27 24 27 33 39 24 18 18 17 15 16 16 15 15 15 22 21 18 15 12 9 7 7 4 1 1 1 1 3 5 6 7 7 9 11 9 6 4 2 4 5 5 7 8 9 11 13 15 15 17 20 22
27 26 27 28 25 32 30 23 17 18 16 16 17 18 17 16 19 24 22 18 15 12 10 10 8 6 3 2 0 1 1 3 5 6 7 7 7 7 8 9 7 5 2 2 3 4 7 9 10 11 12 13 14 15
28 28 27 25 25 31 27 19 17 18 17 17 19 19 18 18 23 26 23 20 15 13 11 11 9 7 5 3 2 1 1 3 4 6 7 8 8 8 8 8 7 6 5 3 3 3 4 6 8 9 11 12 14 16
26 24 25 24 24 31 21 16 19 18 18 19 20 19 19 20 25 24 22 18 16 14 13 12 11 9 7 5 4 2 2 2 2 4 4 5 5 6 7 8 8 9 8 6 5 5 7 8 10 11 13 15 16 17
24 23 20 25 29 27 20 19 19 18 19 21 22 20 22 20 23 22 24 23 17 16 14 13 12 11 8 7 6 4 2 3 3 4 5 6 7 7 7 7 7 8 7 7 7 8 8 10 11 11 12 16 18 21
22 21 21 27 29 22 18 20 19 19 20 21 22 22 21 19 23 24 24 23 20 19 16 15 14 12 9 7 6 4 4 5 6 6 7 8 8 8 8 8 8 8 9 11 11 10 11 12 12 14 18 21 22 21
21 22 26 27 23 16 17 19 19 19 18 20 21 21 21 21 25 26 27 25 23 21 19 17 14 12 9 7 6 7 8 9 9 9 10 10 11 11 11 11 11 12 13 14 14 13 12 12 13 17 17 22 25 24
25 28 28 25 17 16 18 18 18 18 19 16 17 23 23 22 27 29 29 27 26 24 21 19 17 15 13 12 12 12 10 10 12 14 15 16 16 16 17 17 16 17 18 21 20 18 18 18 20 18 19 23 26 25
30 23 21 19 16 16 16 16 18 17 17 18 21 21 22 24 29 30 28 29 27 27 25 23 22 17 14 14 19 15 14 15 16 19 21 21 21 20 20 21 22 24 22 20 21 21 22 22 20 22 24 27 28 26
19 15 11 14 14 13 13 14 15 16 18 20 21 21 22 25 28 30 30 29 30 30 29 28 25 15 16 21 24 22 21 20 21 21 22 24 24 22 22 22 24 30 30 25 20 22 23 21 23 23 25 29 29 23
30 25 16 13 13 12 12 13 13 14 14 16 16 18 21 24 28 30 30 32 31 30 31 27 24 23 26 28 27 25 26 26 26 28 27 28 28 27 27 26 31 30 37 36 31 24 24 26 26 27 32 32 25 20
27 26 23 14 12 10 10 10 10 12 11 10 12 14 18 23 25 27 28 29 31 30 27 25 25 27 28 27 28 28 29 30 30 29 29 32 32 33 32 33 34 29 25 38 36 27 24 29 27 30 32 29 22 20
20 17 18 16 12 12 10 9 9 10 11 12 13 13 14 18 18 22 24 26 24 24 26 27 26 27 28 29 30 32 33 33 32 31 32 33 35 35 37 37 36 37 37 40 28 27 26 26 25 26 30 30 22 20
21 19 21 22 19 13 10 8 9 8 8 9 11 15 19 19 19 20 21 20 21 23 25 26 26 25 26 27 29 31 30 29 28 29 29 28 28 27 27 28 33 31 27 27 28 23 22 14 16 28 31 23 20 19
20 20 20 17 13 12 12 10 10 7 6 5 6 6 9 19 21 18 17 19 20 20 20 20 21 22 22 23 25 26 25 25 24 22 23 22 23 23 21 24 25 30 37 28 13 21 16 21 31 25 19 19 19 19
17 16 14 13 14 13 10 10 11 9 8 8 9 8 10 12 14 17 19 20 18 17 17 17 16 16 18 19 17 17 18 20 21 22 24 26 25 25 18 17 17 18 16 20 31 18 15 19 18 18 18 18 17 17
16 16 16 16 13 10 8 8 9 7 2 1 6 7 8 8 8 10 12 14 15 15 14 15 16 17 17 16 17 17 18 20 22 25 24 25 23 21 20 22 18 19 22 20 16 12 13 15 15 15 15 16 15 16
17 17 17 16 14 11 9 8 9 11 9 5 6 5 8 6 7 6 9 10 10 11 13 13 15 17 19 20 20 20 24 26 24 23 21 18 19 20 20 20 18 16 15 14 12 11 11 12 12 12 13 14 14 14
14 16 16 16 15 13 11 10 11 11 11 10 7 9 12 12 11 13 13 11 12 13 14 16 17 18 20 22 23 20 15 14 15 15 17 18 18 17 15 14 13 11 11 12 11 11 12 13 12 12 11 13 14 13
14 13 13 13 15 13 11 11 10 11 12 13 10 9 12 13 12 11 10 10 9 11 12 14 14 11 10 11 12 14 15 15 15 14 12 11 11 12 12 13 13 13 14 14 13 12 13 13 12 12 12 11 12 12
10 11 12 14 14 13 10 8 8 10 11 12 13 15 14 12 13 10 8 8 10 12 16 18 11 9 11 13 11 9 8 9 11 12 14 14 15 15 15 16 16 16 17 16 14 13 13 12 11 11 11 11 11 11
15 15 14 12 9 7 7 7 7 7 8 7 6 6 7 8 10 11 10 10 13 14 11 10 11 12 9 9 11 12 15 16 16 16 18 18 18 18 18 18 18 18 17 15 13 14 14 12 11 10 10 9 10 11
9 8 9 9 11 11 11 11 11 8 5 3 3 3 4 6 6 8 14 18 9 8 10 10 9 10 12 14 16 17 19 20 21 22 22 21 20 20 20 19 19 18 16 15 14 14 14 13 13 12 10 9 9 10
13 12 12 11 11 12 11 10 10 8 5 3 4 4 5 6 7 7 8 6 7 7 8 10 12 14 16 18 20 23 24 24 24 24 24 23 23 21 19 19 18 17 16 15 15 14 14 15 14 13 11 10 9 9
Wind_Direction
293 299 300 300 301 305 314 316 323 322 321 320 321 309 315 310 262 236 237 244 248 243 248 258 276 276 278 280 300 313 310 290 283 280 281 277 268 265 252 245 247 242 235 239 243 237 239 241 236 228 225 227 229 226
282 286 293 298 297 301 301 309 314 315 314 314 316 300 298 292 265 251 251 248 245 238 235 269 284 285 285 280 284 294 300 286 279 269 268 270 266 256 255 261 255 246 227 231 235 236 241 240 244 242 231 228 227 228
277 279 281 285 287 289 294 297 308 306 305 305 308 289 284 281 259 245 240 235 231 229 246 273 287 293 291 290 293 299 296 290 280 272 270 265 261 255 251 250 254 248 231 232 231 229 234 241 245 247 241 232 230 226
279 276 273 275 277 281 284 290 301 298 295 297 301 282 282 279 255 238 228 214 217 233 277 290 304 305 299 301 304 304 307 307 300 281 273 270 259 245 246 245 242 244 246 244 237 247 242 251 247 244 241 230 229 233
276 276 272 268 268 270 276 282 295 288 287 289 291 271 277 277 244 235 224 211 217 249 294 302 310 317 316 313 309 294 303 309 309 285 281 269 261 250 246 246 247 243 242 244 241 239 242 245 243 233 244 224 223 232
276 277 275 274 262 261 263 279 284 278 279 279 277 264 271 263 244 236 227 215 222 250 281 289 297 319 317 316 306 318 337 333 317 303 292 278 267 257 251 245 242 238 239 239 245 248 251 253 254 246 241 254 232 227
279 278 273 274 258 254 258 262 275 267 268 268 261 258 264 253 242 244 219 210 218 241 263 269 291 316 327 338 321 338 345 331 337 343 327 292 275 261 255 249 239 232 228 230 231 234 241 248 253 257 253 251 257 262
281 283 272 267 255 254 252 271 251 257 258 259 248 251 257 240 242 223 201 199 210 230 237 252 268 297 342 23 9 356 351 343 339 347 356 345 301 275 259 258 250 236 232 231 234 235 236 241 250 257 259 259 259 259
284 280 270 260 245 254 255 262 226 245 248 252 244 245 243 237 235 206 192 196 203 216 225 234 219 238 324 4 50 20 4 354 350 356 12 20 19 355 304 276 255 240 231 232 233 235 237 239 241 248 257 260 263 263
283 276 254 246 254 257 257 217 222 233 240 241 236 234 233 237 221 202 195 198 200 208 220 215 204 214 218 354 30 34 13 11 13 20 24 33 41 43 34 18 320 265 240 234 258 245 240 247 260 266 267 266 264 263
270 268 255 260 266 260 211 210 211 226 233 233 231 229 225 230 208 202 199 197 199 207 215 206 204 206 215 234 56 25 336 350 22 34 41 45 48 43 48 54 55 51 28 319 287 268 259 262 267 268 271 272 270 266
271 262 258 262 279 237 209 195 216 224 225 226 226 224 223 219 206 204 200 196 199 211 213 206 203 202 205 205 187 104 30 7 7 24 38 51 57 60 55 50 43 36 31 19 354 323 305 296 294 292 287 282 280 279
267 259 253 255 267 227 193 197 218 222 224 220 220 217 218 215 207 204 201 195 200 210 210 204 202 198 195 177 163 122 69 19 339 359 13 19 22 31 33 37 40 37 28 19 357 324 305 295 291 288 287 285 282 280
258 250 257 261 238 201 189 210 219 220 219 218 215 215 216 212 205 203 201 200 198 208 206 200 203 207 213 216 216 230 272 320 312 317 335 338 337 335 336 350 353 350 350 351 350 340 329 329 326 322 327 322 298 283
256 254 259 235 200 186 196 215 218 217 218 217 213 214 212 211 203 205 206 202 202 202 200 200 203 211 221 226 232 260 282 304 301 307 309 315 326 328 326 329 330 331 326 322 316 311 309 312 312 325 325 325 320 307
253 246 222 209 187 182 207 212 212 215 218 217 211 211 214 211 204 208 207 203 203 203 198 203 205 211 215 224 246 269 286 298 307 313 311 306 309 316 319 316 322 318 319 312 305 294 293 298 307 312 317 317 311 303
226 214 196 179 180 205 212 214 213 213 214 212 210 214 213 214 206 209 207 205 205 208 209 208 209 215 231 244 256 266 278 291 300 302 302 307 313 313 309 307 308 308 306 307 307 298 294 293 298 307 312 314 308 296
199 177 169 178 194 205 212 217 216 214 213 209 217 216 213 213 209 211 208 208 210 213 216 217 218 220 234 257 265 270 273 283 295 303 304 306 306 303 305 303 296 293 288 289 293 290 294 295 301 309 308 310 308 296
166 157 182 193 197 200 209 215 214 212 213 216 222 218 218 217 213 215 212 213 216 218 222 225 228 233 245 252 266 277 286 289 292 296 296 295 295 296 303 299 300 311 288 281 283 286 290 292 299 304 315 316 307 291
170 180 187 200 190 194 203 212 216 215 217 224 227 224 221 223 221 217 219 218 223 224 226 231 240 242 245 254 262 272 279 283 287 287 292 291 291 294 292 302 299 301 293 280 291 288 294 297 298 296 311 312 302 286
166 176 181 200 206 202 205 218 223 226 226 226 224 220 222 225 224 217 218 223 227 231 235 239 241 248 255 262 269 273 277 282 282 284 287 289 290 293 294 290 286 295 308 287 278 293 301 306 305 303 308 307 294 284
170 162 173 193 211 228 222 231 230 227 237 240 229 218 220 224 222 218 221 227 229 228 233 239 244 252 259 267 273 277 280 282 282 282 282 286 285 285 292 292 282 285 286 289 285 297 309 318 313 303 309 303 286 286
168 172 188 205 215 217 226 235 227 227 232 235 233 229 224 224 228 229 229 231 232 236 240 244 250 258 264 270 274 278 281 283 283 288 291 295 295 295 292 293 290 295 300 277 278 309 312 313 304 300 299 287 285 289
180 194 200 201 207 214 221 220 211 218 223 219 222 234 239 226 226 232 232 234 238 242 249 255 257 262 272 279 281 282 283 281 282 283 288 294 298 298 297 301 300 288 293 294 301 343 344 309 300 298 291 286 290 294
185 187 192 198 206 209 212 209 205 205 223 227 238 253 247 234 223 226 235 238 240 247 253 256 260 265 272 277 284 284 285 281 280 285 282 285 300 308 283 296 314 314 290 282 301 327 302 293 301 300 294 293 297 302
191 190 192 197 198 196 196 199 198 205 125 192 215 232 229 237 218 214 230 235 237 242 247 246 261 273 274 285 293 292 289 284 289 294 285 286 288 294 297 293 295 271 295 299 304 313 307 308 305 301 299 299 301 305
194 200 203 206 207 205 207 202 192 176 174 190 195 201 188 193 211 226 259 246 247 253 253 255 273 284 288 286 284 288 296 298 296 291 286 285 283 287 287 295 295 294 300 304 306 310 311 307 309 306 300 300 303 301
197 203 204 206 209 207 210 210 204 186 190 199 206 212 196 202 217 221 240 240 249 258 270 282 289 291 292 291 293 295 291 296 299 294 290 292 295 297 300 297 295 300 296 296 307 315 306 304 306 305 304 302 302 304
201 196 196 203 207 209 210 214 214 197 198 199 205 242 234 222 226 240 260 266 272 275 277 291 304 313 315 307 302 299 302 303 306 305 305 309 313 311 310 308 299 289 291 300 304 302 298 299 302 303 301 300 302 307
178 177 189 194 197 199 202 207 203 204 198 208 222 232 236 232 222 248 256 258 268 293 303 300 292 304 307 309 306 305 316 318 315 308 308 308 307 307 308 309 308 304 300 298 296 295 291 291 296 298 299 301 305 297
176 183 182 183 187 189 188 181 186 188 194 201 213 222 219 224 240 261 273 281 292 298 304 316 317 316 319 321 316 314 313 312 310 310 310 310 310 310 309 307 302 297 296 292 290 288 282 283 285 284 288 294 295 300
160 155 152 160 170 174 175 168 157 153 144 142 173 228 255 260 261 275 296 292 289 299 312 318 321 318 316 314 315 316 317 317 316 313 312 310 307 305 305 301 296 291 285 280 278 283 284 282 281 279 281 288 290 294
143 157 165 164 157 148 137 130 124 121 126 102 356 328 329 312 297 291 305 311 316 318 317 315 316 319 318 316 317 319 319 317 316 313 311 308 304 300 298 297 293 286 281 278 276 274 274 273 274 276 277 281 282 291